Flag for Indonesia Weather past 2 weeks in Makassar, South Sulawesi, Indonesia

Now
90 °F

Passing clouds.


Feels Like: 92 °F
Forecast: 76 / 89 °F
Wind: 5 mph from South

Location: Ujung Pandang / Hasanuddin

Current Time: Jul 31, 2015 at 11:20:15 AM

Latest Report: Jul 31, 2015 at 11:00 AM


Visibility: N/A

Pressure: 29.89 "Hg

Humidity: 46%

Dew point: 66 °F

Location of MakassarLocation

Historic Weather in Makassar — Graph

°F

Makassar temperature yesterday

Maximum temperature yesterday: 93 °F (at 1:00 PM)
Minimum temperature yesterday: 73 °F (at 5:30 AM)
Average temperature yesterday: 84 °F

Past Weeks' High & Low Weather Summary

 TemperatureHumidityPressure
High93 °F (Jul 18, 1:30 PM)100% (Jul 16, 9:00 PM)29.98 "Hg (Jul 16, 9:00 PM)
Low68 °F (Jul 21, 6:00 AM)41% (Jul 18, 3:00 PM)29.77 "Hg (Jul 16, 2:30 PM)
Average82 °F73%29.88 "Hg
* Reported Jul 16 10:00 AM — Jul 31 10:00 AM, Makassar, Weather by CustomWeather, © 2015

Note: Actual official high and low records may vary slightly from our data, if they occured in-between our weather recording intervals... More about our weather records

Advertising

Makassar weather history for previous 24 hours

 ConditionsComfort  
Time TempWeatherWind HumidityBarometerVisibility
10:00 AM
Fri, Jul 31
88 °FPassing clouds.3 mph49%29.89 "HgN/A
9:30 AM86 °FPassing clouds.3 mph66%29.89 "HgN/A
9:00 AM84 °FPassing clouds.3 mph70%29.89 "HgN/A
8:30 AM82 °FPassing clouds.2 mph74%29.89 "HgN/A
8:00 AM81 °FPassing clouds.3 mph84%29.89 "HgN/A
7:00 AM73 °FPassing clouds.2 mph89%29.86 "HgN/A
6:00 AM70 °FPassing clouds.2 mph100%29.86 "Hg5 mi
5:00 AM70 °FPassing clouds.1 mph100%29.83 "Hg5 mi
4:00 AM73 °FPassing clouds.5 mph83%29.83 "Hg5 mi
3:30 AM73 °FPassing clouds.3 mph83%29.86 "Hg5 mi
3:00 AM72 °FPassing clouds.5 mph94%29.86 "Hg5 mi
2:30 AM73 °FPassing clouds.6 mph89%29.86 "Hg5 mi
2:00 AM77 °FPassing clouds.2 mph74%29.86 "Hg5 mi
1:30 AM75 °FPassing clouds.2 mph78%29.86 "Hg5 mi
1:00 AM77 °FPassing clouds.5 mph74%29.86 "Hg5 mi
12:30 AM79 °FPassing clouds.6 mph65%29.89 "Hg5 mi
12:00 AM77 °FPassing clouds.3 mph65%29.89 "Hg5 mi
11:30 PM
Thu, Jul 30
79 °FPassing clouds.5 mph61%29.89 "Hg5 mi
11:00 PM81 °FPassing clouds.5 mph54%29.89 "Hg5 mi
10:30 PM81 °FPassing clouds.6 mph54%29.89 "Hg5 mi
10:00 PM82 °FPassing clouds.9 mph51%29.89 "Hg5 mi
9:30 PM81 °FPassing clouds.7 mph62%29.89 "Hg5 mi
9:00 PM82 °FPassing clouds.12 mph58%29.89 "Hg5 mi
8:30 PM82 °FPassing clouds.10 mph58%29.89 "Hg5 mi
8:00 PM84 °FPassing clouds.12 mph55%29.86 "Hg5 mi
7:30 PM84 °FPassing clouds.9 mph55%29.86 "Hg5 mi
7:00 PM84 °FPassing clouds.9 mph58%29.83 "Hg5 mi
6:30 PM84 °FPassing clouds.9 mph58%29.83 "Hg5 mi
6:00 PM86 °FPassing clouds.8 mph52%29.83 "HgN/A
5:30 PM88 °FPassing clouds.8 mph52%29.83 "HgN/A
5:00 PM88 °FPassing clouds.9 mph52%29.80 "HgN/A
4:30 PM90 °FPassing clouds.15 mph52%29.80 "HgN/A
4:00 PM91 °FPassing clouds.12 mph46%29.80 "HgN/A
3:30 PM91 °FPassing clouds.15 mph46%29.80 "HgN/A
3:00 PM91 °FPassing clouds.16 mph46%29.80 "HgN/A
2:30 PM91 °FPassing clouds.17 mph46%29.80 "HgN/A
2:00 PM93 °FPassing clouds.9 mph44%29.83 "HgN/A
1:30 PM93 °FPassing clouds.9 mph44%29.83 "HgN/A
1:00 PM93 °FPassing clouds.14 mph47%29.83 "HgN/A
12:30 PM91 °FPassing clouds.8 mph46%29.86 "HgN/A
12:00 PM91 °FPassing clouds.8 mph46%29.86 "HgN/A
11:00 AM90 °FPassing clouds.13 mph52%29.89 "HgN/A
Weather by CustomWeather, © 2015

See weather overviewHow to use our weather pages